This demonstration page uses our WeatherBlox Daily Observations layout. Learn more.

Left ArrowRight Arrow

Hourly Observations for October 14, 2015

Temp ( °F °C ) Dew Point ( °F °C ) Humidity (%) Winds ( mph kmh ) Pressure ( in mb ) Visibility ( mi km ) Precip ( " mm )
12:53 am 00:53 Clear 55 12.8 50 10 83 83 Calm 29.91 1013 10 16 0.00 0.00
1:53 am 01:53 Clear 53 11.7 50 10 89 89 Calm 29.91 1013 10 16 0.00 0.00
2:53 am 02:53 Clear 53 11.7 48 8.9 83 83 Calm 29.91 1013 10 16 0.00 0.00
3:53 am 03:53 Clear 51 10.6 47 8.3 86 86 Calm 29.91 1013 10 16 0.00 0.00
4:53 am 04:53 Clear 52 11.1 48 8.9 86 86 SSE 3 6 29.91 1013 10 16 0.00 0.00
5:53 am 05:53 Clear 50 10 47 8.3 89 89 Calm 29.93 1014 10 16 0.00 0.00
6:53 am 06:53 Clear 50 10 47 8.3 89 89 Calm 29.95 1014 10 16 0.00 0.00
7:53 am 07:53 Sunny 49 9.4 46 7.8 90 90 Calm 29.97 1015 10 16 0.00 0.00
8:53 am 08:53 Sunny 56 13.3 50 10 81 81 Calm 29.99 1016 10 16 0.00 0.00
9:53 am 09:53 Sunny 60 15.6 49 9.4 67 67 WNW 6 9 30.01 1016 10 16 0.00 0.00
10:53 am 10:53 Sunny 67 19.4 49 9.4 53 53 NNW 7 11 30.01 1016 10 16 0.00 0.00
11:53 am 11:53 Sunny 70 21.1 47 8.3 44 44 NW 12 19 30.01 1016 10 16 0.00 0.00
12:53 pm 12:53 Sunny 72 22.2 45 7.2 38 38 NW 12 19 30.01 1016 10 16 0.00 0.00
1:53 pm 13:53 Sunny 75 23.9 44 6.7 33 33 W 13 20 29.99 1016 10 16 0.00 0.00
2:53 pm 14:53 Sunny 76 24.4 43 6.1 31 31 NW 9 15 29.98 1015 10 16 0.00 0.00
3:53 pm 15:53 Sunny 77 25 45 7.2 32 32 WNW 9 15 29.97 1015 10 16 0.00 0.00
4:53 pm 16:53 Sunny 76 24.4 44 6.7 32 32 WNW 8 13 29.97 1015 10 16 0.00 0.00
5:53 pm 17:53 Sunny 75 23.9 44 6.7 33 33 NW 8 13 29.97 1015 10 16 0.00 0.00
6:53 pm 18:53 Sunny 71 21.7 48 8.9 44 44 NNW 3 6 29.98 1015 10 16 0.00 0.00
7:53 pm 19:53 Clear 62 16.7 52 11.1 70 70 Calm 30.01 1016 10 16 0.00 0.00
8:53 pm 20:53 Clear 58 14.4 53 11.7 84 84 Calm 30.03 1017 10 16 0.00 0.00
9:53 pm 21:53 Clear 56 13.3 52 11.1 87 87 Calm 30.04 1017 10 16 0.00 0.00
10:53 pm 22:53 Clear 55 12.8 51 10.6 87 87 Calm 30.04 1017 10 16 0.00 0.00
11:53 pm 23:53 Clear 53 11.7 51 10.6 93 93 Calm 30.05 1018 10 16 0.00 0.00

Powered by AerisWeather